Regional Weather Roundup
Issued by NWS Kansas City/Pleasant Hill, MO

Home | Current Version | Previous Version | Text Only | Print | Product List | Glossary On
Versions: 1 2 3 4 5 6 7 8 9 10 11 12 13 14 15 16 17 18 19 20 21 22 23 24 25 26 27 28 29 30 31 32 33 34 35 36 37 38 39 40 41 42 43 44 45 46 47 48 49 50
000
ASUS43 KEAX 251010
RWREAX

WEATHER ROUNDUP FOR EASTERN KANSAS AND NORTHWEST MISSOURI
NATIONAL WEATHER SERVICE KANSAS CITY/PLEASANT HILL MO
500 AM CDT MON SEP 25 2017

KSZ040-057-103>105-MOZ028-029-037-043-251100-
...KANSAS CITY METROPOLITAN AREA...

CITY           SKY/WX    TMP DP  RH WIND       PRES   REMARKS
K.C. INTL      CLEAR     70  65  84 S9        29.93R
K.C. DOWNTOWN  CLEAR     73  65  75 S8        29.92S
LEES SUMMIT    CLEAR     70  64  81 S8        29.94S
OLATHE - IXD   CLEAR     68  64  87 S7        29.94S
OLATHE - OJC   CLEAR     67  65  93 SE3       29.94S
LAWRENCE       CLEAR     68  66  93 E6        29.92S

$$

MOZ001>008-011>017-020>025-030>033-038>040-044>046-053-054-251100-
...NORTHERN AND CENTRAL MISSOURI...

CITY           SKY/WX    TMP DP  RH WIND       PRES   REMARKS
ST. JOSEPH     CLOUDY    70  66  87 S3        29.91F
MOSBY          SUNNY     68  64  88 CALM      29.93S
WARRENSBURG    CLEAR     64  63  94 S3        29.94S
WHITEMAN AFB   CLEAR     66  66 100 S6        29.94S
CLINTON        CLOUDY    64  63  94 CALM      29.95S
SEDALIA        CLOUDY    69  67  93 S8        29.96F
WARSAW         NOT AVBL
CHILLICOTHE      N/A     67  66  97 CALM      29.95S
KIRKSVILLE     CLEAR     64  61  90 S5        29.97S

$$

MOZ041-047>049-056>058-063>065-088>090-097-251100-
...EASTERN AND SOUTHERN MISSOURI...

CITY           SKY/WX    TMP DP  RH WIND       PRES   REMARKS
ST. LOUIS INTL CLEAR     70  66  87 SE5       29.99R
SPIRIT OF STL  CLEAR     66  65  96 CALM      29.97R
COLUMBIA       CLEAR     67  65  93 SE5       29.97S
JEFFERSON CITY CLEAR     67  63  87 SE3       29.96S
ROLLA          CLEAR     68  63  84 S9        30.00S
OSAGE BEACH    CLEAR     67  64  90 SE3       29.98S
SPRINGFIELD    CLEAR     67  65  93 SE9       29.97S
BRANSON        CLEAR     64  64 100 CALM      30.00F
JOPLIN         CLEAR     69  65  86 S7        29.95S
WEST PLAINS    CLEAR     63  61  93 CALM      30.02S

$$

IAZ060-094-KSZ022-034>040-054-083-096-NEZ052-066-093-251100-
...KANSAS...SOUTHEAST NEBRASKA AND IOWA...

CITY           SKY/WX    TMP DP  RH WIND       PRES   REMARKS
TOPEKA         CLEAR     69  67  93 E7        29.91S
MANHATTAN      CLEAR     73  66  78 S5        29.88S
EMPORIA        CLEAR     68  64  87 S9        29.91S
CHANUTE        CLEAR     69  65  86 SE7       29.93S
WICHITA        MOCLDY    70  66  87 SE9       29.88F
OMAHA          MOCLDY    62  58  86 N8        29.95R
LINCOLN        CLOUDY    60  58  92 N10       29.95R
FALLS CITY     CLEAR     66  64  93 SE5       29.90S
LAMONI         CLOUDY    68  64  87 S5        29.93F
DES MOINES     PTCLDY    69  64  84 CALM      29.92R

$$




USA.gov is the U.S. government's official web portal to all federal, state and local government web resources and services.